Terminal Aerodrome Forecast
Issued by NWS

Home | Current Version | Previous Version | Text Only | Print | Product List | Glossary On
Versions: 1 2 3 4 5 6 7 8 9 10 11 12 13 14 15 16 17 18 19 20 21 22 23 24 25 26
000
FTUS41 KBUF 182300 RRA
TAFJHW
TAF
KJHW 182345Z 1900/1924 28008KT 3SM -FZDZSN OVC007
     FM191100 32006KT 6SM -FZDZSN OVC007
     FM191300 31007KT P6SM OVC007
     FM191600 31010KT P6SM OVC012
      AMD LTD TO CLD VIS AND WIND=

USA.gov is the U.S. government's official web portal to all federal, state and local government web resources and services.